Minneapolis Flying Cloud, MN

1:40 PM CST on November 13, 2019 (GMT -0600)
Flying Cloud

Weather History for KFCM - October, 2019

Change the Weather History Date:

Wednesday, October 23, 2019

  Actual Average Record
Temperature  
Mean Temperature 39 °F -  
Max Temperature 46 °F 53 °F 69 °F (2014)
Min Temperature 32 °F 37 °F 27 °F (2002)
Degree Days  
Heating Degree Days 26    
Moisture  
Dew Point 31 °F    
Average Humidity 71    
Maximum Humidity 89    
Minimum Humidity 60    
Precipitation  
Precipitation 0.00 in - - ()
Sea Level Pressure  
Sea Level Pressure 29.92 in    
Wind  
Wind Speed 8 mph (WNW)    
Max Wind Speed 14 mph    
Max Gust Speed 17 mph    
Visibility 10 miles    
Events      
Averages and records for this station are not official NWS values.
T = Trace of Precipitation, MM = Missing Value Source: NWS Daily Summary

Daily Weather History Graph

Daily Weather History Graph

Search for Another Location

Airport or City:

Astronomy

Oct. 23, 2019 Rise Set
Actual Time 7:39 AM CDT 6:16 PM CDT
Civil Twilight 7:09 AM CDT 6:45 PM CDT
Nautical Twilight 6:35 AM CDT 7:20 PM CDT
Astronomical Twilight 6:01 AM CDT 7:53 PM CDT
Moon 1:40 AM CDT (10/23) 4:23 PM CDT (10/23)
Length of Visible Light 11h 36m
Length of Day
10h 36m
Waning Crescent, 26% of the Moon is Illuminated
Oct 23
Waning Crescent
Oct 27
New
Nov 4
First Quarter
Nov 12
Full
Nov 19
Last Quarter

Hourly Weather History & Observations

Time (CDT) Temp. Windchill Dew Point Humidity Pressure Visibility Wind Dir Wind Speed Gust Speed Precip Events Conditions
12:53 AM 39.0 °F 32.8 °F 30.0 °F 70% 29.72 in 10.0 mi West 9.2 mph - N/A   Clear
1:53 AM 37.9 °F 31.5 °F 30.9 °F 76% 29.73 in 10.0 mi West 9.2 mph - N/A   Clear
2:53 AM 35.1 °F 28.6 °F 30.0 °F 82% 29.75 in 10.0 mi WSW 8.1 mph - N/A   Clear
3:53 AM 34.0 °F 27.2 °F 28.9 °F 82% 29.77 in 10.0 mi WSW 8.1 mph - N/A   Clear
4:53 AM 33.1 °F 26.9 °F 28.9 °F 85% 29.79 in 10.0 mi WSW 6.9 mph - N/A   Clear
5:53 AM 33.1 °F 30.0 °F 28.9 °F 85% 29.81 in 10.0 mi WSW 3.5 mph - N/A   Clear
6:53 AM 32.0 °F 27.5 °F 28.9 °F 88% 29.82 in 10.0 mi WSW 4.6 mph - N/A   Clear
7:53 AM 32.0 °F 26.4 °F 28.9 °F 88% 29.84 in 10.0 mi WSW 5.8 mph - N/A   Clear
8:53 AM 33.1 °F 27.7 °F 30.0 °F 89% 29.87 in 10.0 mi WSW 5.8 mph - N/A   Clear
9:53 AM 39.0 °F 33.4 °F 30.9 °F 73% 29.88 in 10.0 mi WNW 8.1 mph - N/A   Clear
10:53 AM 42.1 °F 37.1 °F 32.0 °F 67% 29.89 in 10.0 mi West 8.1 mph - N/A   Clear
11:53 AM 44.1 °F 41.5 °F 33.1 °F 65% 29.90 in 10.0 mi Variable 4.6 mph - N/A   Clear
12:53 PM 45.0 °F 41.2 °F 33.1 °F 63% 29.91 in 10.0 mi West 6.9 mph - N/A   Clear
1:53 PM 46.0 °F 41.9 °F 33.1 °F 61% 29.90 in 10.0 mi NNW 8.1 mph - N/A   Clear
2:53 PM 45.0 °F 40.6 °F 33.1 °F 63% 29.91 in 10.0 mi NNW 8.1 mph - N/A   Clear
3:53 PM 45.0 °F 41.8 °F 33.1 °F 63% 29.94 in 10.0 mi NNW 5.8 mph - N/A   Clear
4:53 PM 44.1 °F 40.1 °F 33.1 °F 65% 29.97 in 10.0 mi North 6.9 mph - N/A   Partly Cloudy
5:53 PM 44.1 °F 40.1 °F 32.0 °F 63% 30.00 in 10.0 mi NNW 6.9 mph - N/A   Overcast
6:53 PM 44.1 °F 39.5 °F 30.9 °F 60% 30.03 in 10.0 mi NNW 8.1 mph - N/A   Overcast
7:53 PM 41.0 °F 35.8 °F 30.0 °F 65% 30.06 in 10.0 mi NNW 8.1 mph - N/A   Clear
8:53 PM 42.1 °F 37.7 °F 30.9 °F 65% 30.09 in 10.0 mi NNW 6.9 mph - N/A   Overcast
9:53 PM 42.1 °F 36.1 °F 30.9 °F 65% 30.11 in 10.0 mi NNW 10.4 mph - N/A   Overcast
10:53 PM 41.0 °F 37.1 °F 30.9 °F 67% 30.14 in 10.0 mi NW 5.8 mph 17.3 mph N/A   Overcast
11:53 PM 41.0 °F 33.5 °F 30.0 °F 65% 30.16 in 10.0 mi WNW 13.8 mph - N/A   Overcast